Regional Weather Roundup
Issued by NWS Upton, NY

Current Version | Previous Version | Text Only | Print | Product List | Glossary On
Versions: 1 2 3 4 5 6 7 8 9 10 11 12 13 14 15 16 17 18 19 20 21 22 23 24 25 26 27 28 29 30 31 32 33 34 35 36 37 38 39 40 41 42 43 44 45 46 47 48 49 50
000 ASUS41 KOKX 011205 RWROKX REGIONAL WEATHER ROUNDUP NATIONAL WEATHER SERVICE NEW YORK NY 800 AM EDT SAT OCT 01 2016 NOTE: "FAIR" INDICATES FEW OR NO CLOUDS BELOW 12,000 FEET WITH NO SIGNIFICANT WEATHER AND/OR OBSTRUCTIONS TO VISIBILITY. NYZ071-072-176-178-NJZ106-104-011300- NEW YORK CITY METRO AREA CITY SKY/WX TMP DP RH WIND PRES REMARKS Central Park CLOUDY 57 54 89 NE9 30.25R LaGuardia APRT DRIZZLE 58 56 93 NE13 30.22R FOG Kennedy INTL CLOUDY 59 55 87 NE15 30.22R Newark/Liberty DRIZZLE 57 55 93 N9 30.22R Bronx Bot Gard N/A 55 54 94 NE2 30.25R Wall St Helipt CLOUDY 61 57 88 NE13G22 30.22S Teterboro DRIZZLE 57 54 89 N5 30.22R FOG $$ NYZ177-179-078>081-011300- LONG ISLAND NEW YORK CITY SKY/WX TMP DP RH WIND PRES REMARKS Farmingdale CLOUDY 58 56 93 NE14G21 30.21R MacArthur/ISP DRIZZLE 58 57 97 N9 30.21R FOG Shirley CLOUDY 60 59 96 N8 30.21R FOG Riverhead NOT AVBL Westhampton CLOUDY 60 58 92 NE14G25 30.21R Southampton N/A 61 59 94 NE10 30.16R Bridgehampton N/A 59 57 94 S2 30.05S East Hampton CLOUDY 60 57 92 NE13G22 30.19S Montauk N/A 61 59 93 NE13G28 30.21R $$ NYZ052-065-067-011300- HUDSON VALLEY CITY SKY/WX TMP DP RH WIND PRES REMARKS White Plains DRIZZLE 56 53 90 NE7 30.23R FOG Newburgh DRIZZLE 52 52 100 NE7 30.27S FOG Montgomery CLOUDY 53 51 93 NE9 30.26S FOG Poughkeepsie CLOUDY 50 49 96 N8 30.27R FOG Albany CLOUDY 50 47 89 N6 30.31S $$ NJZ001-105-106-008-010-013-015-019>022-104-011300- NEW JERSEY CITY SKY/WX TMP DP RH WIND PRES REMARKS Newark/Liberty DRIZZLE 57 55 93 N9 30.22R Teterboro DRIZZLE 57 54 89 N5 30.22R FOG Caldwell CLOUDY 56 54 93 NE6 30.24R FOG Morristown CLOUDY 55 54 94 NE5 30.24R FOG Somerville CLOUDY 57 53 86 CALM 30.21R Linden NOT AVBL Sussex CLOUDY 52 52 100 NE9 30.26R FOG Abdover N/A 52 51 97 NE6 30.24S Trenton CLOUDY 56 54 93 NE8 30.20S Millville CLOUDY 61 61 100 NE7 30.17R FOG Atlantic City CLOUDY 62 61 96 NE9 30.17R FOG Wrightstown NOT AVBL Toms River LGT RAIN 60 59 96 NE12 30.20R FOG Belmar CLOUDY 59 58 96 NE10 30.21R FOG $$ PAZ047>061-062-071-011300- EASTERN PENNSYLVANIA CITY SKY/WX TMP DP RH WIND PRES REMARKS Philadelphia CLOUDY 58 56 93 NE12 30.19R Allentown CLOUDY 55 51 86 E14 30.22R Scranton CLOUDY 56 51 84 NE10 30.22R $$ CTZ002-004>006-009-010-012-RIZ004-006-007-MAZ004-011-015-011300- SOUTHERN NEW ENGLAND IN CT CITY SKY/WX TMP DP RH WIND PRES REMARKS Bradley INTL DRIZZLE 50 48 93 N10 30.29F FOG Hartford CLOUDY 50 49 96 N13 30.27F FOG Danbury CLOUDY 53 53 100 VRB6 30.27R FOG Wtrbury/Oxford CLOUDY 52 48 87 NE13G20 30.25R Bridgeport CLOUDY 57 51 80 NE13G21 30.23R Meriden CLOUDY 52 49 89 N10 30.26S FOG New Haven CLOUDY 52 50 93 N13 30.23R Chester CLOUDY 55 55 100 N9G16 30.23S FOG Groton CLOUDY 61 57 87 NE15G23 30.21S Wilimantic CLOUDY 57 55 93 N8 30.27R FOG IN RI CITY SKY/WX TMP DP RH WIND PRES REMARKS Providence CLOUDY 58 56 93 N13 30.26S Block Island CLOUDY 60 58 92 NE15G26 30.21R Westerly CLOUDY 59 55 87 NE12G22 30.23R IN MA CITY SKY/WX TMP DP RH WIND PRES REMARKS Boston HVY RAIN 56 56 100 NE13 30.31S FOG Worcester LGT RAIN 50 49 96 NE14G22 30.29S VSB 1/4 Westfield CLOUDY 49 47 93 N15 30.30F FOG Provincetown LGT RAIN 58 58 100 NE17 30.27S FOG Nantucket LGT RAIN 62 60 93 E21G29 30.17F FOG $$ ANZ330-335-338-340-345-350-353-355-011300- COASTAL MARINE OBSERVATIONS STATION/POSITION TIME SKY/WX TEMP WIND PRES VSBY WAVE AIR SEA DIR/SP/G HT/PER (UTC) (F) (DEG/KT/KT) (MB) (MI) (FT/S) NY HARB ENTRANCE 1150 61 68 30/ 19/ 21 1021.9 6/ 9 20S FIRE ISLAND 1050 63 67 40/ 21/ 25 1020.5 9/ 8 GREAT SOUTH BAY 1130 60 64 10/ 14/ 16 N/A 23 SSW MONTAUK P 1150 62 66 40/ 23/ 31 1021.2 9/ 7 15 E BARNEGAT LI 1030 69 N/A 9/ 9 HUDSON CANYON 1050 68 71 1019.5 8/ 9 KINGS POINT 1124 58 67 1023.0 EXECUTION ROCKS 1145 60 40/ 16/ 19 N/A CENTRAL LI SOUND NOT AVBL EASTERN LI SOUND NOT AVBL ROBBINS REEF 1124 58 40/ 15/ 18 1023.2 $$ >>>>>>>>>>>>>>>>>>>>>>>>>>>> KEY <<<<<<<<<<<<<<<<<<<<<<<<<<< > < > SKY/WX - Sky Condition/Present Weather < > TMP - Temperature in Fahrenheit < > DP - Dew Point in Fahrenheit < > RH - Relative Humidity in Percent < > WIND - Direction (from) and Speed in MPH < > PRES - Mean Sea Level Pressure (inches of Hg) < > WCI - Wind Chill Index < > VSB - VISIBILITY IN MILES < > HX - HEAT INDEX < > TC - TEMPERATURE IN CELSIUS < > VRB - VARIABLE WIND DIRECTION < > < >>>>>>>>>>>>>>>>>>>>>>>>>>>> KEY <<<<<<<<<<<<<<<<<<<<<<<<<<<

USA.gov is the U.S. government's official web portal to all federal, state and local government web resources and services.